PROFILE

 METAR AND TAF INFORMATION
ADDS - METARS form results

(1213 UTC 26 March 2019)
http://aviationweather.gov/metar/data/
 
LIEE 261150Z 31007KT 270V330 9999 SCT035 17/09 Q1010
LIEE 261120Z 30007KT 240V340 9999 SCT035 17/09 Q1010
TAF LIEE 261100Z 2612/2712 30014KT 9999 SCT030 TEMPO 2612/2624 SHRA 

 AIRPORT MAP

 RUNWAY INFORMATION
Runway 14 Runway length 9196 ft Runway width 148 ft
Runway elevation 9 ft Runway displaced threshold 0 ft Runway heading 138
Runway 32 Runway length 9196 ft Runway width 148 ft
Runway elevation 4 ft Runway displaced threshold 0 ft Runway heading 318

 AIRPORT FREQUENCIES
Type APP Name CAGLIARI A Frequency 118.75 MHZ
Type GND Name Elmas GND Frequency 125.425 MHZ
Type MISC Name SAR Frequency 123.1 MHZ
Type TWR Name TWR Frequency 120.6 MHZ

 AIRPORT NEAR NAVIGATION AIDS
Type VOR-DME Name Cagliari Frequency 113400 KHZ
Type NDB Name Cagliari Frequency 371 KHZ